COSMOS 2205 (GLONASS)

Satellite information

Favourite Embed

Satellite Type and Status

PAYLOADIN ORBIT

Key statistics

Satellite COSMOS 2205 (GLONASS) at a glance.

Uptime

11975

Days in orbit

Revolutions

≈ 2.1

Per day

Orbit

MEO

Medium Earth Orbit

Inclination

64.4

Latest

Satellite identification and parameters

Extended collection of information and parameters for COSMOS 2205 (GLONASS).

Object identification

Identified? True

Debris? False

Object name: COSMOS 2205 (GLONASS)

International designator: 1992-047C

Object number (NORAD): 22058

Object ID (CCSDS): 22058

Country: COMMONWEALTH OF INDEPENDENT STATES (CIS)

Current information (Y/N): Y

RCS size: LARGE

Orbital parameters

Period: 675.729 minutes

Inclination: 64.417 deg

SMA: 25507.933 km

Apoapsis: 19176.737 km

Periapsis: 19082.858 km

RAAN: 316.4617 deg

Eccentricy: 0.0018402

Argument of periapsis: 222.1309 deg

Mean anomaly: 311.1862 deg

Mean motion: 2.1310315 rev/day

Mean motion (dot): -0.00000043 rev/day2

B* drag term: 0.0 1/REarth

Two-line elements (TLE)

Creation date: May 9, 2025, 5:15 p.m.

Reference frame: TEME

Reference center: EARTH

Epoch: May 9, 2025, 3:20 a.m. UTC

TLE line 0: 0 COSMOS 2205 (GLONASS)

TLE line 1: 1 22058U 92047C 25129.13938593 -.00000043 00000-0 00000-0 0 9997

TLE line 2: 2 22058 64.4170 316.4617 0018402 222.1309 311.1862 2.13103150254923

Live tracking on map

Real-time ground track for satellite COSMOS 2205 (GLONASS).

In-orbit conjunctions

A list of the most updated potential collisions computed for object COSMOS 2205 (GLONASS).

Target Orbit TCA Probability of collision Miss distance Type
SL-12 R/B(2) MEO 2025-05-14 21:23:21 TBA 4604.0 (m) ROCKET BODY

Associated space launch

GLONASS navigation satellites

COSMOS 2205 (GLONASS) was lifted into orbit during the mission ‘Proton | Uragan 48 to 50’, on board a Proton space rocket.

The launch took place on July 30, 1992, 1:59 a.m. from 81/23 (81L).

For more information about the launch, click the button.

Launch to space Proton | Uragan 48 to 50
Proton | Uragan 48 to 50

Agency: N/A

Status: Launch Successful

Launch date: July 30, 1992, 1:59 a.m. UTC

Rocket: Proton

Launch pad: 81/23 (81L)

Location: Baikonur Cosmodrome, Republic of Kazakhstan

...

Latest news about this satellite

There are no fresh news available about this satellite. Check back as we update our databases every day.


Newsletter sign-up

Weekly statistics, charts and insights to help you stay on top of the space industry.